TGW511 VVDN-WSSS

Flight info

Callsign TGW511
Flight time 2h 20m
Altitude 36000
Route SADIN1A SADIN Q1 AC L644 CN L642 ESPOB/N0459F360 Q801 ESBUM/N0458F370 Q802 ELALO ELALO1B
Aircraft A320/M-SDFGHIRWYZ/LB1

Departure

Time 2026-05-07 03:23
Airport Da Nang International Airport (VVDN)

Arrival

Time 2026-05-07 05:44
Airport Singapore Changi Airport (WSSS)
Time Latitude Longitude Altitude Speed Heading
2026-05-07 03:05 16.05694 108.20147 33 ft 0 kts 82°
2026-05-07 03:09 16.05692 108.20126 33 ft 4 kts 82°
2026-05-07 03:10 16.05689 108.20104 33 ft 3 kts 82°
2026-05-07 03:10 16.05700 108.20048 33 ft 4 kts 172°
2026-05-07 03:11 16.05708 108.20047 33 ft 2 kts 172°
2026-05-07 03:13 16.05591 108.20023 33 ft 6 kts 194°
2026-05-07 03:13 16.05547 108.20014 33 ft 7 kts 184°
2026-05-07 03:14 16.05500 108.20019 33 ft 7 kts 173°
2026-05-07 03:14 16.05449 108.20027 33 ft 8 kts 172°
2026-05-07 03:14 16.05336 108.20043 33 ft 9 kts 172°
2026-05-07 03:15 16.05274 108.20052 33 ft 9 kts 172°
2026-05-07 03:15 16.05208 108.20061 33 ft 10 kts 172°
2026-05-07 03:15 16.05140 108.20071 33 ft 10 kts 172°
2026-05-07 03:15 16.05066 108.20082 33 ft 11 kts 172°
2026-05-07 03:16 16.04987 108.20094 32 ft 12 kts 172°
2026-05-07 03:16 16.04900 108.20106 32 ft 13 kts 172°
2026-05-07 03:16 16.04809 108.20120 32 ft 13 kts 172°
2026-05-07 03:16 16.04714 108.20133 32 ft 14 kts 172°
2026-05-07 03:17 16.04616 108.20148 32 ft 15 kts 172°
2026-05-07 03:17 16.04514 108.20163 32 ft 15 kts 172°
2026-05-07 03:17 16.04405 108.20178 32 ft 16 kts 172°
2026-05-07 03:17 16.04293 108.20194 33 ft 16 kts 172°
2026-05-07 03:18 16.04179 108.20211 33 ft 17 kts 172°
2026-05-07 03:18 16.04060 108.20229 33 ft 18 kts 172°
2026-05-07 03:18 16.03935 108.20246 33 ft 19 kts 172°
2026-05-07 03:18 16.03802 108.20264 33 ft 20 kts 169°
2026-05-07 03:19 16.03701 108.20281 33 ft 15 kts 172°
2026-05-07 03:19 16.03591 108.20296 33 ft 17 kts 172°
2026-05-07 03:19 16.03470 108.20314 33 ft 19 kts 172°
2026-05-07 03:19 16.03369 108.20329 32 ft 14 kts 172°
2026-05-07 03:20 16.03276 108.20342 32 ft 13 kts 172°
2026-05-07 03:20 16.03181 108.20356 32 ft 15 kts 172°
2026-05-07 03:20 16.03081 108.20371 32 ft 14 kts 172°
2026-05-07 03:20 16.02998 108.20379 32 ft 9 kts 184°
2026-05-07 03:21 16.02940 108.20346 30 ft 11 kts 222°
2026-05-07 03:21 16.02918 108.20276 31 ft 10 kts 268°
2026-05-07 03:21 16.02966 108.20245 31 ft 7 kts 354°
2026-05-07 03:21 16.02974 108.20244 31 ft 0 kts 353°
2026-05-07 03:22 16.03013 108.20239 31 ft 25 kts 353°
2026-05-07 03:22 16.03397 108.20183 33 ft 84 kts 352°
2026-05-07 03:22 16.04136 108.20076 33 ft 128 kts 352°
2026-05-07 03:23 16.05132 108.19930 33 ft 159 kts 352°
2026-05-07 03:23 16.06279 108.19771 260 ft 163 kts 353°
2026-05-07 03:23 16.07370 108.19610 716 ft 159 kts 353°
2026-05-07 03:23 16.08107 108.19512 928 ft 163 kts 353°
2026-05-07 03:24 16.09636 108.19346 1344 ft 170 kts 356°
2026-05-07 03:24 16.10811 108.19220 1733 ft 171 kts 355°
2026-05-07 03:24 16.12037 108.19092 1917 ft 184 kts 355°
2026-05-07 03:24 16.13357 108.18976 2044 ft 197 kts 360°
2026-05-07 03:25 16.14780 108.19088 2255 ft 213 kts
2026-05-07 03:25 16.16267 108.19477 2467 ft 232 kts 35°
2026-05-07 03:25 16.17300 108.20759 2862 ft 238 kts 72°
2026-05-07 03:25 16.17538 108.22480 3356 ft 248 kts 91°
2026-05-07 03:26 16.17563 108.24340 3820 ft 264 kts 91°
2026-05-07 03:26 16.17573 108.26280 4510 ft 270 kts 90°
2026-05-07 03:26 16.17580 108.27578 5022 ft 272 kts 89°
2026-05-07 03:26 16.17598 108.30232 6025 ft 276 kts 89°
2026-05-07 03:27 16.17613 108.32244 6733 ft 280 kts 89°
2026-05-07 03:27 16.17633 108.34280 7431 ft 283 kts 89°
2026-05-07 03:27 16.17381 108.36283 7867 ft 286 kts 111°
2026-05-07 03:27 16.16228 108.37949 7986 ft 288 kts 142°
2026-05-07 03:28 16.14410 108.38795 8007 ft 290 kts 172°
2026-05-07 03:28 16.12382 108.38884 8011 ft 292 kts 179°
2026-05-07 03:28 16.10354 108.38904 8010 ft 292 kts 179°
2026-05-07 03:28 16.09002 108.38915 8011 ft 292 kts 179°
2026-05-07 03:29 16.06967 108.38930 8366 ft 293 kts 179°
2026-05-07 03:29 16.04915 108.38948 9051 ft 296 kts 179°
2026-05-07 03:29 16.02849 108.38968 9752 ft 298 kts 178°
2026-05-07 03:29 16.00760 108.38992 10304 ft 305 kts 178°
2026-05-07 03:30 15.97850 108.39030 10659 ft 326 kts 178°
2026-05-07 03:30 15.96320 108.39052 10803 ft 337 kts 178°
2026-05-07 03:30 15.93921 108.39087 11027 ft 352 kts 178°
2026-05-07 03:30 15.91450 108.39123 11468 ft 358 kts 178°
2026-05-07 03:31 15.88953 108.39157 12031 ft 360 kts 178°
2026-05-07 03:31 15.86437 108.39188 12596 ft 363 kts 179°
2026-05-07 03:31 15.83896 108.39217 13148 ft 366 kts 179°
2026-05-07 03:31 15.81342 108.39246 13693 ft 369 kts 178°
2026-05-07 03:32 15.78758 108.39277 14175 ft 372 kts 178°
2026-05-07 03:32 15.76156 108.39312 14663 ft 374 kts 178°
2026-05-07 03:32 15.73571 108.39348 15121 ft 377 kts 178°
2026-05-07 03:32 15.70938 108.39383 15592 ft 380 kts 178°
2026-05-07 03:33 15.68286 108.39415 16059 ft 382 kts 179°
2026-05-07 03:33 15.65615 108.39448 16515 ft 385 kts 179°
2026-05-07 03:33 15.62926 108.39479 16982 ft 388 kts 179°
2026-05-07 03:33 15.60212 108.39514 17441 ft 391 kts 178°
2026-05-07 03:34 15.57470 108.39550 17904 ft 394 kts 180°
2026-05-07 03:34 15.54734 108.39289 18352 ft 397 kts 191°
2026-05-07 03:34 15.52065 108.38495 18764 ft 400 kts 201°
2026-05-07 03:34 15.49513 108.37305 19174 ft 403 kts 204°
2026-05-07 03:35 15.46954 108.36085 19580 ft 406 kts 204°
2026-05-07 03:35 15.44409 108.34882 19990 ft 408 kts 204°
2026-05-07 03:35 15.41816 108.33663 20415 ft 411 kts 204°
2026-05-07 03:35 15.39200 108.32435 20845 ft 413 kts 204°
2026-05-07 03:36 15.36578 108.31201 21263 ft 415 kts 205°
2026-05-07 03:36 15.33933 108.29954 21667 ft 417 kts 205°
2026-05-07 03:36 15.31289 108.28707 22061 ft 420 kts 205°
2026-05-07 03:36 15.28619 108.27446 22443 ft 422 kts 205°
2026-05-07 03:37 15.25943 108.26182 22811 ft 424 kts 205°
2026-05-07 03:37 15.23250 108.24912 23166 ft 426 kts 205°
2026-05-07 03:37 15.20542 108.23634 23517 ft 428 kts 205°
2026-05-07 03:37 15.17820 108.22349 23806 ft 430 kts 205°
2026-05-07 03:38 15.15089 108.21061 24077 ft 432 kts 205°
2026-05-07 03:38 15.12345 108.19769 24362 ft 434 kts 205°
2026-05-07 03:38 15.09552 108.18572 24650 ft 436 kts 199°
2026-05-07 03:38 15.06598 108.17837 24926 ft 438 kts 189°
2026-05-07 03:39 15.03550 108.17612 25188 ft 441 kts 181°
2026-05-07 03:39 15.00512 108.17566 25442 ft 443 kts 182°
2026-05-07 03:39 14.97414 108.17505 25695 ft 445 kts 182°
2026-05-07 03:39 14.94312 108.17435 25952 ft 447 kts 182°
2026-05-07 03:40 14.91201 108.17361 26209 ft 448 kts 182°
2026-05-07 03:40 14.88077 108.17286 26463 ft 450 kts 182°
2026-05-07 03:40 14.84940 108.17215 26724 ft 451 kts 182°
2026-05-07 03:40 14.81790 108.17144 26971 ft 453 kts 182°
2026-05-07 03:41 14.78631 108.17073 27209 ft 454 kts 182°
2026-05-07 03:41 14.75460 108.17002 27450 ft 456 kts 182°
2026-05-07 03:41 14.72278 108.16932 27684 ft 458 kts 182°
2026-05-07 03:41 14.69087 108.16866 27919 ft 459 kts 182°
2026-05-07 03:42 14.65921 108.16799 28143 ft 461 kts 182°
2026-05-07 03:42 14.62700 108.16728 28392 ft 462 kts 182°
2026-05-07 03:42 14.59477 108.16655 28634 ft 464 kts 182°
2026-05-07 03:42 14.56242 108.16583 28965 ft 463 kts 182°
2026-05-07 03:43 14.53014 108.16512 29346 ft 462 kts 182°
2026-05-07 03:43 14.49844 108.16442 29702 ft 461 kts 182°
2026-05-07 03:43 14.46638 108.16370 30058 ft 460 kts 182°
2026-05-07 03:43 14.43442 108.16301 30390 ft 458 kts 182°
2026-05-07 03:44 14.40250 108.16231 30721 ft 457 kts 182°
2026-05-07 03:44 14.37065 108.16159 31043 ft 456 kts 182°
2026-05-07 03:44 14.33899 108.16090 31371 ft 455 kts 182°
2026-05-07 03:44 14.30729 108.16019 31709 ft 454 kts 182°
2026-05-07 03:45 14.27573 108.15947 32056 ft 453 kts 182°
2026-05-07 03:45 14.24424 108.15875 32396 ft 452 kts 182°
2026-05-07 03:45 14.21315 108.15807 32731 ft 451 kts 182°
2026-05-07 03:45 14.18176 108.15743 33073 ft 450 kts 182°
2026-05-07 03:46 14.15041 108.15679 33412 ft 449 kts 182°
2026-05-07 03:46 14.11921 108.15610 33734 ft 449 kts 182°
2026-05-07 03:46 14.08789 108.15542 34032 ft 448 kts 182°
2026-05-07 03:46 14.05674 108.15474 34294 ft 448 kts 182°
2026-05-07 03:47 14.02561 108.15408 34552 ft 447 kts 182°
2026-05-07 03:47 13.99447 108.15342 34807 ft 447 kts 182°
2026-05-07 03:47 13.96380 108.15279 35046 ft 446 kts 182°
2026-05-07 03:47 13.93273 108.15215 35285 ft 446 kts 182°
2026-05-07 03:48 13.90130 108.15148 35515 ft 446 kts 182°
2026-05-07 03:48 13.87069 108.15081 35740 ft 445 kts 182°
2026-05-07 03:48 13.83964 108.15010 35900 ft 446 kts 183°
2026-05-07 03:49 13.77692 108.14870 35943 ft 455 kts 182°
2026-05-07 03:49 13.71343 108.14740 35937 ft 459 kts 182°
2026-05-07 03:50 13.64949 108.14596 35934 ft 459 kts 183°
2026-05-07 03:50 13.58553 108.14452 35932 ft 459 kts 182°
2026-05-07 03:51 13.52206 108.14311 35933 ft 459 kts 183°
2026-05-07 03:51 13.45821 108.14166 35936 ft 458 kts 183°
2026-05-07 03:52 13.39441 108.14025 35936 ft 458 kts 182°
2026-05-07 03:52 13.33051 108.13892 35937 ft 458 kts 182°
2026-05-07 03:53 13.26677 108.13744 35939 ft 458 kts 183°
2026-05-07 03:53 13.20304 108.13584 35940 ft 458 kts 182°
2026-05-07 03:54 13.13973 108.13426 35940 ft 458 kts 182°
2026-05-07 03:54 13.07595 108.13272 35939 ft 457 kts 182°
2026-05-07 03:55 13.01231 108.13124 35941 ft 458 kts 182°
2026-05-07 03:55 12.99121 108.13075 35939 ft 458 kts 182°
2026-05-07 03:56 12.88473 108.12817 35941 ft 458 kts 182°
2026-05-07 03:56 12.82133 108.12667 35938 ft 458 kts 182°
2026-05-07 03:57 12.75744 108.12521 35935 ft 459 kts 182°
2026-05-07 03:57 12.69353 108.12369 35934 ft 459 kts 182°
2026-05-07 03:58 12.62961 108.12218 35938 ft 459 kts 182°
2026-05-07 03:58 12.56561 108.12090 35942 ft 459 kts 182°
2026-05-07 03:59 12.50215 108.11965 35941 ft 459 kts 182°
2026-05-07 03:59 12.43818 108.11841 35943 ft 459 kts 182°
2026-05-07 04:00 12.38501 108.11739 35943 ft 459 kts 182°
2026-05-07 04:00 12.31033 108.11589 35940 ft 458 kts 182°
2026-05-07 04:01 12.24692 108.11459 35947 ft 458 kts 182°
2026-05-07 04:01 12.18304 108.11327 35954 ft 458 kts 182°
2026-05-07 04:02 12.11910 108.11205 35955 ft 458 kts 182°
2026-05-07 04:02 12.05525 108.11080 35958 ft 459 kts 182°
2026-05-07 04:03 11.99141 108.10950 35958 ft 459 kts 182°
2026-05-07 04:03 11.92927 108.09905 35951 ft 455 kts 201°
2026-05-07 04:04 11.87429 108.06741 35941 ft 453 kts 221°
2026-05-07 04:04 11.82785 108.02377 35940 ft 453 kts 223°
2026-05-07 04:05 11.78185 107.98034 35944 ft 453 kts 223°
2026-05-07 04:05 11.73545 107.93666 35943 ft 453 kts 223°
2026-05-07 04:06 11.68917 107.89306 35940 ft 453 kts 223°
2026-05-07 04:06 11.64285 107.84933 35937 ft 453 kts 223°
2026-05-07 04:07 11.59655 107.80569 35934 ft 453 kts 223°
2026-05-07 04:07 11.55046 107.76232 35929 ft 453 kts 223°
2026-05-07 04:08 11.50416 107.71874 35920 ft 453 kts 223°
2026-05-07 04:08 11.46566 107.68245 35912 ft 453 kts 223°
2026-05-07 04:09 11.41155 107.63154 35916 ft 453 kts 223°
2026-05-07 04:09 11.36520 107.58790 35911 ft 453 kts 223°
2026-05-07 04:10 11.31880 107.54437 35908 ft 453 kts 223°
2026-05-07 04:10 11.27277 107.50115 35898 ft 452 kts 223°
2026-05-07 04:11 11.25709 107.48644 35889 ft 452 kts 223°
2026-05-07 04:12 11.08805 107.32777 35887 ft 452 kts 223°
2026-05-07 04:13 11.04945 107.29160 35887 ft 452 kts 223°
2026-05-07 04:13 11.00304 107.24819 35884 ft 453 kts 223°
2026-05-07 04:14 10.95557 107.20589 35881 ft 453 kts 215°
2026-05-07 04:14 10.89922 107.17821 35867 ft 455 kts 196°
2026-05-07 04:15 10.83761 107.16266 35870 ft 456 kts 195°
2026-05-07 04:15 10.77609 107.14711 35873 ft 455 kts 195°
2026-05-07 04:16 10.71463 107.13148 35872 ft 456 kts 195°
2026-05-07 04:16 10.65307 107.11583 35878 ft 456 kts 194°
2026-05-07 04:17 10.59141 107.10025 35879 ft 456 kts 194°
2026-05-07 04:17 10.52974 107.08471 35880 ft 457 kts 194°
2026-05-07 04:18 10.46803 107.06911 35883 ft 457 kts 194°
2026-05-07 04:18 10.40637 107.05342 35883 ft 457 kts 194°
2026-05-07 04:19 10.34479 107.03766 35885 ft 457 kts 194°
2026-05-07 04:19 10.28316 107.02186 35885 ft 457 kts 194°
2026-05-07 04:20 10.22137 107.00614 35886 ft 457 kts 194°
2026-05-07 04:20 10.15962 106.99036 35886 ft 458 kts 194°
2026-05-07 04:21 10.06700 106.96674 35892 ft 458 kts 194°
2026-05-07 04:21 10.00523 106.95107 35897 ft 458 kts 194°
2026-05-07 04:22 9.94347 106.93536 35895 ft 458 kts 194°
2026-05-07 04:22 9.88170 106.91966 35896 ft 458 kts 194°
2026-05-07 04:23 9.81993 106.90394 35895 ft 458 kts 194°
2026-05-07 04:23 9.75861 106.88828 35894 ft 458 kts 194°
2026-05-07 04:24 9.69642 106.87243 35893 ft 458 kts 194°
2026-05-07 04:24 9.63459 106.85678 35887 ft 458 kts 194°
2026-05-07 04:25 9.57323 106.84113 35884 ft 458 kts 194°
2026-05-07 04:25 9.51149 106.82529 35880 ft 458 kts 194°
2026-05-07 04:26 9.44962 106.80945 35882 ft 459 kts 194°
2026-05-07 04:26 9.38774 106.79353 35886 ft 459 kts 194°
2026-05-07 04:27 9.32584 106.77773 35885 ft 459 kts 194°
2026-05-07 04:27 9.26388 106.76194 35883 ft 459 kts 194°
2026-05-07 04:28 9.20193 106.74612 35883 ft 459 kts 194°
2026-05-07 04:28 9.13994 106.73031 35886 ft 460 kts 194°
2026-05-07 04:29 9.07788 106.71445 35890 ft 460 kts 194°
2026-05-07 04:29 9.01587 106.69853 35888 ft 460 kts 194°
2026-05-07 04:30 8.95377 106.68262 35888 ft 460 kts 194°
2026-05-07 04:30 8.89170 106.66682 35887 ft 460 kts 193°
2026-05-07 04:31 8.82958 106.65103 35888 ft 460 kts 194°
2026-05-07 04:31 8.76748 106.63523 35888 ft 460 kts 193°
2026-05-07 04:32 8.70828 106.61127 35872 ft 461 kts 211°
2026-05-07 04:32 8.65376 106.57710 35869 ft 462 kts 211°
2026-05-07 04:33 8.59895 106.54318 35875 ft 462 kts 211°
2026-05-07 04:33 8.54419 106.50930 35882 ft 462 kts 211°
2026-05-07 04:34 8.48950 106.47539 35877 ft 462 kts 211°
2026-05-07 04:34 8.43478 106.44143 35872 ft 462 kts 211°
2026-05-07 04:35 8.38000 106.40747 35873 ft 462 kts 211°
2026-05-07 04:35 8.32512 106.37346 35873 ft 463 kts 211°
2026-05-07 04:36 8.27050 106.33958 35873 ft 463 kts 211°
2026-05-07 04:36 8.21554 106.30550 35869 ft 464 kts 211°
2026-05-07 04:37 8.16044 106.27134 35868 ft 464 kts 211°
2026-05-07 04:37 8.10530 106.23721 35873 ft 465 kts 211°
2026-05-07 04:38 8.05007 106.20309 35874 ft 465 kts 211°
2026-05-07 04:38 7.99479 106.16888 35875 ft 465 kts 211°
2026-05-07 04:39 7.93998 106.13501 35875 ft 465 kts 211°
2026-05-07 04:39 7.88471 106.10083 35870 ft 466 kts 211°
2026-05-07 04:40 7.82954 106.06657 35874 ft 466 kts 211°
2026-05-07 04:40 7.77423 106.03233 35872 ft 466 kts 211°
2026-05-07 04:41 7.71885 105.99826 35868 ft 466 kts 211°
2026-05-07 04:41 7.66351 105.96410 35871 ft 466 kts 211°
2026-05-07 04:42 7.60854 105.93015 35869 ft 466 kts 211°
2026-05-07 04:42 7.55319 105.89590 35869 ft 466 kts 211°
2026-05-07 04:43 7.49790 105.86179 35869 ft 466 kts 210°
2026-05-07 04:43 7.44264 105.82769 35864 ft 466 kts 211°
2026-05-07 04:44 7.40609 105.80512 35864 ft 466 kts 211°
2026-05-07 04:44 7.33237 105.75979 35869 ft 466 kts 210°
2026-05-07 04:45 7.27726 105.72584 35887 ft 461 kts 211°
2026-05-07 04:45 7.25878 105.71445 35887 ft 461 kts 211°
2026-05-07 04:46 7.11484 105.62570 35871 ft 461 kts 210°
2026-05-07 04:47 7.06002 105.59206 35868 ft 461 kts 210°
2026-05-07 04:47 7.00520 105.55834 35862 ft 462 kts 210°
2026-05-07 04:48 6.96819 105.53712 35862 ft 462 kts 207°
2026-05-07 04:48 6.89166 105.49880 35861 ft 461 kts 204°
2026-05-07 04:49 6.83381 105.47058 35856 ft 462 kts 205°
2026-05-07 04:49 6.77628 105.44154 35862 ft 462 kts 206°
2026-05-07 04:50 6.71900 105.41215 35859 ft 462 kts 206°
2026-05-07 04:50 6.66170 105.38279 35859 ft 462 kts 206°
2026-05-07 04:51 6.60430 105.35358 35861 ft 462 kts 205°
2026-05-07 04:51 6.54725 105.32472 35861 ft 462 kts 205°
2026-05-07 04:52 6.48976 105.29555 35862 ft 462 kts 206°
2026-05-07 04:52 6.44201 105.27127 35863 ft 462 kts 206°
2026-05-07 04:53 6.37493 105.23712 35868 ft 463 kts 206°
2026-05-07 04:53 6.31748 105.20789 35869 ft 463 kts 206°
2026-05-07 04:54 6.25996 105.17869 35866 ft 463 kts 205°
2026-05-07 04:54 6.20283 105.14975 35865 ft 463 kts 206°
2026-05-07 04:55 6.14530 105.12053 35859 ft 463 kts 205°
2026-05-07 04:55 6.08774 105.09140 35861 ft 463 kts 206°
2026-05-07 04:56 6.03018 105.06226 35861 ft 463 kts 206°
2026-05-07 04:56 5.97270 105.03313 35858 ft 463 kts 205°
2026-05-07 04:57 5.91521 105.00396 35846 ft 463 kts 205°
2026-05-07 04:57 5.85798 104.97498 35848 ft 463 kts 205°
2026-05-07 04:58 5.80041 104.94578 35855 ft 463 kts 205°
2026-05-07 04:58 5.74287 104.91661 35857 ft 463 kts 205°
2026-05-07 04:59 5.68529 104.88742 35851 ft 463 kts 205°
2026-05-07 04:59 5.62778 104.85830 35852 ft 463 kts 205°
2026-05-07 05:00 5.57024 104.82917 35853 ft 462 kts 205°
2026-05-07 05:00 5.51273 104.80014 35847 ft 462 kts 205°
2026-05-07 05:01 5.45527 104.77107 35855 ft 462 kts 205°
2026-05-07 05:01 5.40746 104.74692 35864 ft 462 kts 205°
2026-05-07 05:02 5.34074 104.71313 35860 ft 461 kts 205°
2026-05-07 05:02 5.28340 104.68408 35858 ft 461 kts 205°
2026-05-07 05:03 5.23568 104.66001 35848 ft 461 kts 205°
2026-05-07 05:03 5.16858 104.62614 35851 ft 462 kts 205°
2026-05-07 05:04 5.11152 104.59722 35863 ft 461 kts 205°
2026-05-07 05:04 5.05415 104.56825 35860 ft 461 kts 205°
2026-05-07 05:05 4.99674 104.53928 35856 ft 461 kts 205°
2026-05-07 05:05 4.93940 104.51032 35851 ft 461 kts 205°
2026-05-07 05:06 4.88068 104.48608 35851 ft 458 kts 192°
2026-05-07 05:06 4.81761 104.48153 35846 ft 455 kts 172°
2026-05-07 05:07 4.76494 104.48821 35842 ft 455 kts 172°
2026-05-07 05:07 4.70251 104.49606 35841 ft 455 kts 172°
2026-05-07 05:08 4.63961 104.50393 35844 ft 455 kts 172°
2026-05-07 05:08 4.57674 104.51184 35842 ft 455 kts 172°
2026-05-07 05:09 4.51379 104.51978 35852 ft 455 kts 172°
2026-05-07 05:09 4.45087 104.52776 35855 ft 455 kts 172°
2026-05-07 05:10 4.38843 104.53566 35859 ft 454 kts 171°
2026-05-07 05:10 4.32562 104.54359 35857 ft 454 kts 172°
2026-05-07 05:11 4.26283 104.55146 35856 ft 454 kts 172°
2026-05-07 05:11 4.20005 104.55930 35854 ft 454 kts 172°
2026-05-07 05:12 4.13727 104.56588 35852 ft 454 kts 173°
2026-05-07 05:12 4.07474 104.57154 35849 ft 453 kts 173°
2026-05-07 05:13 4.01175 104.57738 35851 ft 453 kts 173°
2026-05-07 05:13 3.94896 104.58354 35848 ft 452 kts 173°
2026-05-07 05:14 3.88619 104.58980 35850 ft 453 kts 173°
2026-05-07 05:14 3.82395 104.59593 35857 ft 452 kts 173°
2026-05-07 05:15 3.76126 104.60208 35859 ft 451 kts 173°
2026-05-07 05:15 3.69877 104.60818 35859 ft 451 kts 173°
2026-05-07 05:16 3.63623 104.61431 35857 ft 451 kts 173°
2026-05-07 05:16 3.57362 104.62042 35855 ft 451 kts 173°
2026-05-07 05:17 3.51153 104.62648 35855 ft 451 kts 173°
2026-05-07 05:17 3.44889 104.63262 35855 ft 451 kts 173°
2026-05-07 05:18 3.38623 104.63879 35863 ft 451 kts 173°
2026-05-07 05:18 3.32426 104.64488 35858 ft 451 kts 173°
2026-05-07 05:19 3.26180 104.65103 35856 ft 451 kts 173°
2026-05-07 05:19 3.19932 104.65714 35849 ft 451 kts 173°
2026-05-07 05:20 3.13685 104.66328 35853 ft 451 kts 173°
2026-05-07 05:20 3.07461 104.66412 35542 ft 448 kts 189°
2026-05-07 05:21 3.04440 104.65602 35306 ft 451 kts 200°
2026-05-07 05:21 2.99092 104.62280 33943 ft 462 kts 223°
2026-05-07 05:21 2.96899 104.59937 32955 ft 469 kts 226°
2026-05-07 05:22 2.94678 104.57524 32033 ft 473 kts 226°
2026-05-07 05:22 2.92430 104.55108 31279 ft 473 kts 226°
2026-05-07 05:22 2.90194 104.52725 30729 ft 468 kts 226°
2026-05-07 05:22 2.87968 104.50360 30105 ft 466 kts 226°
2026-05-07 05:23 2.85750 104.48002 29433 ft 464 kts 226°
2026-05-07 05:23 2.83551 104.45660 28826 ft 459 kts 226°
2026-05-07 05:23 2.81373 104.43336 28219 ft 455 kts 226°
2026-05-07 05:23 2.79221 104.41038 27611 ft 451 kts 226°
2026-05-07 05:24 2.77081 104.38752 27019 ft 448 kts 226°
2026-05-07 05:24 2.74957 104.36481 26428 ft 445 kts 226°
2026-05-07 05:24 2.72855 104.34229 25850 ft 442 kts 226°
2026-05-07 05:24 2.70758 104.31980 25273 ft 439 kts 226°
2026-05-07 05:25 2.68677 104.29750 24724 ft 437 kts 226°
2026-05-07 05:25 2.66605 104.27534 24176 ft 435 kts 225°
2026-05-07 05:25 2.64539 104.25334 23657 ft 433 kts 225°
2026-05-07 05:25 2.62480 104.23141 23088 ft 431 kts 225°
2026-05-07 05:26 2.60434 104.20959 22571 ft 427 kts 225°
2026-05-07 05:26 2.58433 104.18820 22066 ft 424 kts 226°
2026-05-07 05:26 2.56421 104.16665 21549 ft 422 kts 226°
2026-05-07 05:26 2.54420 104.14524 21108 ft 418 kts 226°
2026-05-07 05:27 2.52353 104.12549 20980 ft 403 kts 215°
2026-05-07 05:27 2.49962 104.11202 20861 ft 386 kts 199°
2026-05-07 05:27 2.47418 104.10559 20739 ft 368 kts 184°
2026-05-07 05:27 2.44912 104.10474 20228 ft 356 kts 178°
2026-05-07 05:28 2.42478 104.10479 19536 ft 353 kts 178°
2026-05-07 05:28 2.40035 104.10487 18935 ft 347 kts 178°
2026-05-07 05:28 2.37645 104.10492 18475 ft 343 kts 178°
2026-05-07 05:28 2.35248 104.10497 18013 ft 345 kts 178°
2026-05-07 05:29 2.32845 104.10501 17524 ft 344 kts 178°
2026-05-07 05:29 2.30456 104.10502 17129 ft 342 kts 178°
2026-05-07 05:29 2.28086 104.10502 16649 ft 338 kts 178°
2026-05-07 05:29 2.25753 104.10499 16191 ft 331 kts 178°
2026-05-07 05:30 2.23470 104.10494 15767 ft 331 kts 178°
2026-05-07 05:30 2.21136 104.10493 15329 ft 331 kts 178°
2026-05-07 05:30 2.18861 104.10497 14954 ft 329 kts 178°
2026-05-07 05:30 2.16574 104.10500 14533 ft 329 kts 178°
2026-05-07 05:31 2.14288 104.10500 14246 ft 325 kts 178°
2026-05-07 05:31 2.12039 104.10497 13893 ft 323 kts 178°
2026-05-07 05:31 2.09794 104.10495 13514 ft 321 kts 178°
2026-05-07 05:31 2.07561 104.10493 13125 ft 319 kts 178°
2026-05-07 05:32 2.05344 104.10490 12746 ft 317 kts 178°
2026-05-07 05:32 2.03167 104.10489 12380 ft 315 kts 178°
2026-05-07 05:32 2.01036 104.10488 12222 ft 296 kts 178°
2026-05-07 05:32 1.99040 104.10484 12006 ft 280 kts 178°
2026-05-07 05:33 1.97109 104.10486 11549 ft 275 kts 178°
2026-05-07 05:33 1.95209 104.10495 11093 ft 270 kts 178°
2026-05-07 05:33 1.93346 104.10506 10783 ft 268 kts 178°
2026-05-07 05:33 1.91469 104.10519 10428 ft 270 kts 178°
2026-05-07 05:34 1.89602 104.10531 10164 ft 268 kts 178°
2026-05-07 05:34 1.87733 104.10533 9893 ft 266 kts 179°
2026-05-07 05:34 1.85910 104.10472 9774 ft 257 kts 181°
2026-05-07 05:34 1.84175 104.10380 9661 ft 248 kts 181°
2026-05-07 05:35 1.82484 104.10280 9541 ft 239 kts 182°
2026-05-07 05:35 1.80850 104.10183 9335 ft 234 kts 181°
2026-05-07 05:35 1.79231 104.10093 9029 ft 233 kts 181°
2026-05-07 05:35 1.77590 104.10005 8702 ft 233 kts 181°
2026-05-07 05:36 1.75986 104.09919 8382 ft 234 kts 181°
2026-05-07 05:36 1.74353 104.09833 8048 ft 235 kts 181°
2026-05-07 05:36 1.72710 104.09747 7708 ft 237 kts 181°
2026-05-07 05:36 1.71054 104.09661 7377 ft 238 kts 182°
2026-05-07 05:37 1.69395 104.09574 7041 ft 240 kts 182°
2026-05-07 05:37 1.67726 104.09484 6697 ft 241 kts 182°
2026-05-07 05:37 1.66093 104.09398 6368 ft 242 kts 182°
2026-05-07 05:37 1.64376 104.09309 6002 ft 245 kts 182°
2026-05-07 05:38 1.62682 104.09217 5646 ft 249 kts 185°
2026-05-07 05:38 1.60994 104.08794 5282 ft 251 kts 200°
2026-05-07 05:38 1.59895 104.08339 4884 ft 256 kts 203°
2026-05-07 05:38 1.57734 104.07392 4144 ft 253 kts 203°
2026-05-07 05:39 1.56141 104.06714 3787 ft 243 kts 202°
2026-05-07 05:39 1.54610 104.06069 3474 ft 235 kts 202°
2026-05-07 05:39 1.53136 104.05447 3180 ft 226 kts 202°
2026-05-07 05:39 1.51720 104.04850 2903 ft 215 kts 202°
2026-05-07 05:40 1.50375 104.04282 2635 ft 205 kts 202°
2026-05-07 05:40 1.49089 104.03738 2388 ft 198 kts 202°
2026-05-07 05:40 1.47837 104.03210 2124 ft 190 kts 202°
2026-05-07 05:40 1.46675 104.02719 1899 ft 170 kts 202°
2026-05-07 05:41 1.45667 104.02293 1694 ft 147 kts 202°
2026-05-07 05:41 1.44749 104.01905 1516 ft 142 kts 202°
2026-05-07 05:41 1.43841 104.01523 1330 ft 141 kts 202°
2026-05-07 05:41 1.42946 104.01145 1152 ft 141 kts 202°
2026-05-07 05:42 1.42042 104.00763 970 ft 141 kts 202°
2026-05-07 05:42 1.41142 104.00378 807 ft 140 kts 202°
2026-05-07 05:42 1.40238 103.99999 663 ft 140 kts 202°
2026-05-07 05:42 1.39334 103.99622 469 ft 140 kts 203°
2026-05-07 05:43 1.38434 103.99234 280 ft 140 kts 202°
2026-05-07 05:43 1.37539 103.98850 120 ft 140 kts 201°
2026-05-07 05:43 1.36655 103.98474 41 ft 133 kts 202°
2026-05-07 05:43 1.35886 103.98154 32 ft 102 kts 199°
2026-05-07 05:44 1.35452 103.97982 31 ft 41 kts 202°
2026-05-07 05:44 1.35206 103.97878 29 ft 35 kts 202°
2026-05-07 05:44 1.35048 103.97817 31 ft 14 kts 186°
2026-05-07 05:44 1.34998 103.97848 31 ft 8 kts 115°
2026-05-07 05:45 1.34975 103.97906 31 ft 10 kts 111°
2026-05-07 05:45 1.34981 103.97972 30 ft 11 kts 43°
2026-05-07 05:45 1.35049 103.98005 29 ft 11 kts 23°
2026-05-07 05:45 1.35129 103.98039 31 ft 14 kts 23°
2026-05-07 05:46 1.35208 103.98072 31 ft 11 kts 22°
2026-05-07 05:46 1.35288 103.98105 31 ft 12 kts 23°
2026-05-07 05:46 1.35372 103.98141 31 ft 14 kts 23°
2026-05-07 05:46 1.35470 103.98182 31 ft 17 kts 23°
2026-05-07 05:47 1.35565 103.98222 31 ft 15 kts 22°
2026-05-07 05:47 1.35667 103.98265 31 ft 17 kts 23°
2026-05-07 05:47 1.35743 103.98297 31 ft 19 kts 23°
2026-05-07 05:47 1.35837 103.98337 31 ft 11 kts 22°
2026-05-07 05:48 1.35949 103.98383 31 ft 15 kts 22°
2026-05-07 05:48 1.36044 103.98424 31 ft 11 kts 23°
2026-05-07 05:48 1.36119 103.98456 31 ft 12 kts 23°
2026-05-07 05:48 1.36201 103.98490 31 ft 13 kts 22°
2026-05-07 05:49 1.36259 103.98515 31 ft 14 kts 23°
2026-05-07 05:49 1.36350 103.98553 31 ft 15 kts 23°
2026-05-07 05:49 1.36446 103.98593 31 ft 15 kts 23°
2026-05-07 05:49 1.36545 103.98635 31 ft 16 kts 22°
2026-05-07 05:50 1.36647 103.98678 31 ft 16 kts 23°
2026-05-07 05:50 1.36738 103.98717 31 ft 11 kts 22°
2026-05-07 05:50 1.36810 103.98747 31 ft 10 kts 22°
2026-05-07 05:50 1.36842 103.98791 31 ft 8 kts 95°
2026-05-07 05:51 1.36819 103.98846 31 ft 9 kts 112°
2026-05-07 05:51 1.36791 103.98911 31 ft 10 kts 112°
2026-05-07 05:51 1.36762 103.98981 31 ft 12 kts 113°
2026-05-07 05:51 1.36728 103.99058 31 ft 13 kts 114°
2026-05-07 05:52 1.36691 103.99142 31 ft 14 kts 113°
2026-05-07 05:52 1.36652 103.99235 31 ft 15 kts 113°
2026-05-07 05:52 1.36609 103.99335 31 ft 16 kts 113°
2026-05-07 05:52 1.36571 103.99423 31 ft 14 kts 113°
2026-05-07 05:53 1.36533 103.99512 31 ft 15 kts 112°
2026-05-07 05:53 1.36498 103.99592 31 ft 8 kts 115°
2026-05-07 05:53 1.36451 103.99609 31 ft 8 kts 188°
2026-05-07 05:53 1.36397 103.99586 31 ft 9 kts 209°
2026-05-07 05:54 1.36355 103.99540 31 ft 7 kts 232°
2026-05-07 05:54 1.36354 103.99503 31 ft 5 kts 303°
2026-05-07 05:54 1.36385 103.99479 31 ft 6 kts 323°
2026-05-07 05:54 1.36406 103.99463 31 ft 0 kts 323°